GW3985 Weather Reports


Display with metric or nautical units.
time (UTC)temp
F
wind
direction
speed
MPH
gust
MPH
rain 1hr
in
rain 24hr
in
rain mn
in
humidity
%
barometer
mb
20260509121516 51 133 2.0 4.0 0.00 0.00 0.00 60 1018.1
20260509120516 50 138 3.0 5.0 0.00 0.00 0.00 61 1018.1
20260509115516 50 138 2.0 5.0 0.00 0.00 0.00 61 1018.0
20260509114517 50 136 2.0 3.0 0.00 0.00 0.00 61 1017.8
20260509113515 51 130 2.0 5.0 0.00 0.00 0.00 61 1017.7
20260509112535 51 134 2.0 6.0 0.00 0.00 0.00 60 1017.6
20260509111516 51 133 2.0 7.0 0.00 0.00 0.00 60 1017.7
20260509110536 52 135 3.0 5.0 0.00 0.00 0.00 59 1017.7
20260509105516 51 136 2.0 6.0 0.00 0.00 0.00 60 1017.6
20260509104517 52 129 1.0 4.0 0.00 0.00 0.00 60 1017.7
20260509103537 52 137 2.0 5.0 0.00 0.00 0.00 60 1017.6
20260509102515 52 139 2.0 5.0 0.00 0.00 0.00 59 1017.6
20260509101515 52 135 2.0 5.0 0.00 0.00 0.00 59 1017.7
20260509100516 52 134 2.0 4.0 0.00 0.00 0.00 59 1017.6
20260509095516 53 138 2.0 6.0 0.00 0.00 0.00 59 1017.6
20260509094537 53 128 2.0 4.0 0.00 0.00 0.00 58 1017.6
20260509093517 53 140 3.0 6.0 0.00 0.00 0.00 58 1017.6
20260509092537 53 135 4.0 9.0 0.00 0.00 0.00 59 1017.5
20260509091515 52 134 3.0 8.0 0.00 0.00 0.00 60 1017.5
20260509090556 52 149 2.0 34.0 0.00 0.00 0.00 61 1017.6
20260509085515 52 144 0.0 1.0 0.00 0.00 0.00 61 1017.5
20260509084516 53 129 0.0 3.0 0.00 0.00 0.00 59 1017.6
20260509083516 53 135 1.0 8.0 0.00 0.00 0.00 59 1017.6
20260509082517 53 140 2.0 7.0 0.00 0.00 0.00 59 1017.6
20260509081515 53 135 3.0 9.0 0.00 0.00 0.00 60 1017.6
20260509080515 52 138 3.0 8.0 0.00 0.00 0.00 60 1017.6
20260509075515 52 139 4.0 11.0 0.00 0.00 0.00 60 1017.7
20260509074516 53 137 4.0 8.0 0.00 0.00 0.00 59 1017.7
20260509073536 53 136 4.0 10.0 0.00 0.00 0.00 58 1017.8
20260509072517 53 136 5.0 11.0 0.00 0.00 0.00 57 1017.8
20260509071517 54 136 5.0 12.0 0.00 0.00 0.00 57 1018.0
20260509070514 54 137 5.0 12.0 0.00 0.00 0.00 57 1018.1
20260509065515 54 133 4.0 12.0 0.00 0.00 0.00 56 1018.3
20260509064515 55 132 4.0 9.0 0.00 0.00 0.00 56 1018.3
20260509063516 55 131 4.0 10.0 0.00 0.00 0.00 56 1018.3
20260509062516 55 138 5.0 11.0 0.00 0.00 0.00 56 1018.5
20260509061516 54 137 5.0 10.0 0.00 0.00 0.00 58 1018.5
20260509060517 54 138 4.0 10.0 0.00 0.00 0.00 59 1018.6
20260509055515 53 134 6.0 12.0 0.00 0.00 0.00 61 1018.7
20260509054516 53 139 2.0 7.0 0.00 0.00 0.00 63 1018.9
20260509053516 53 134 3.0 7.0 0.00 0.00 0.00 63 1019.1
20260509052516 53 138 3.0 9.0 0.00 0.00 0.00 62 1019.3
20260509051516 53 141 3.0 5.0 0.00 0.00 0.00 62 1019.4
20260509050517 53 137 2.0 7.0 0.00 0.00 0.00 62 1019.4
20260509045517 54 136 1.0 3.0 0.00 0.00 0.00 60 1019.5
20260509044515 53 136 2.0 3.0 0.00 0.00 0.00 60 1019.6
20260509043515 53 138 1.0 2.0 0.00 0.00 0.00 61 1019.9
20260509042515 54 138 0.0 2.0 0.00 0.00 0.00 61 1020.0
20260509041536 54 138 1.0 2.0 0.00 0.00 0.00 61 1019.9
20260509040516 54 139 0.0 2.0 0.00 0.00 0.00 59 1020.3
20260509035516 55 131 0.0 1.0 0.00 0.00 0.00 57 1020.0
20260509034517 56 131 0.0 2.0 0.00 0.00 0.00 57 1019.7
20260509033515 56 124 0.0 1.0 0.00 0.00 0.00 57 1019.6
20260509032515 56 125 0.0 1.0 0.00 0.00 0.00 56 1019.7
20260509031536 57 136 2.0 4.0 0.00 0.00 0.00 56 1019.5
20260509030516 57 131 1.0 3.0 0.00 0.00 0.00 55 1019.6
20260509025536 57 106 0.0 1.0 0.00 0.00 0.00 54 1019.5
20260509024517 57 131 0.0 1.0 0.00 0.00 0.00 54 1019.3
20260509023517 58 130 0.0 1.0 0.00 0.00 0.00 54 1019.1
20260509022515 59 117 1.0 2.0 0.00 0.00 0.00 52 1018.9
20260509021515 59 109 1.0 2.0 0.00 0.00 0.00 51 1018.8
20260509020516 60 112 0.0 1.0 0.00 0.00 0.00 51 1018.9
20260509015516 61 75 0.0 1.0 0.00 0.00 0.00 49 1018.8
20260509014516 61 96 0.0 1.0 0.00 0.00 0.00 48 1018.7
20260509013517 62 0.0 0.0 0.00 0.00 0.00 47 1018.9
20260509012514 62 99 0.0 1.0 0.00 0.00 0.00 46 1018.6
20260509011515 63 94 1.0 2.0 0.00 0.00 0.00 44 1018.7
20260509010515 65 118 0.0 2.0 0.00 0.00 0.00 43 1018.5
20260509005516 66 94 1.0 2.0 0.00 0.00 0.00 42 1018.5
20260509004516 66 146 0.0 1.0 0.00 0.00 0.00 41 1018.7
20260509003517 67 244 0.0 1.0 0.00 0.00 0.00 40 1018.5
20260509002517 69 250 0.0 2.0 0.00 0.00 0.00 38 1018.4
20260509001015 70 233 0.0 2.0 0.00 0.00 0.00 38 1018.4
20260509000015 71 101 1.0 3.0 0.00 0.00 0.00 37 1018.5
20260508235016 71 110 0.0 1.0 0.00 0.00 0.00 37 1018.5
20260508234016 72 278 0.0 1.0 0.00 0.00 0.00 35 1018.5
20260508233036 73 152 0.0 2.0 0.00 0.00 0.00 35 1018.5
20260508232017 71 299 0.0 3.0 0.00 0.00 0.00 37 1018.6
20260508231015 71 311 1.0 4.0 0.00 0.00 0.00 37 1018.5
20260508230015 72 101 1.0 2.0 0.00 0.00 0.00 36 1018.6
20260508225015 72 322 0.0 2.0 0.00 0.00 0.00 37 1018.7
20260508224016 72 345 1.0 3.0 0.00 0.00 0.00 37 1018.7
20260508223016 71 160 0.0 2.0 0.00 0.00 0.00 36 1018.6
20260508222016 71 267 1.0 3.0 0.00 0.00 0.00 37 1018.7
20260508221037 71 110 1.0 2.0 0.00 0.00 0.00 39 1018.7
20260508220015 70 87 1.0 6.0 0.00 0.00 0.00 39 1018.7
20260508215015 71 282 1.0 4.0 0.00 0.00 0.00 38 1018.9
20260508214016 71 111 1.0 4.0 0.00 0.00 0.00 38 1018.9
20260508213016 70 296 1.0 4.0 0.00 0.00 0.00 39 1019.1
20260508212016 70 166 1.0 3.0 0.00 0.00 0.00 39 1019.1
20260508211016 70 168 1.0 2.0 0.00 0.00 0.00 40 1019.1
20260508210017 68 89 1.0 4.0 0.00 0.00 0.00 41 1019.3
20260508205015 70 106 2.0 6.0 0.00 0.00 0.00 40 1019.5
20260508204015 71 244 1.0 3.0 0.00 0.00 0.00 38 1019.5
20260508203035 70 319 1.0 2.0 0.00 0.00 0.00 40 1019.6
20260508202016 69 308 1.0 2.0 0.00 0.00 0.00 39 1019.7
20260508201017 69 57 1.0 3.0 0.00 0.00 0.00 42 1019.8
20260508200016 70 245 0.0 2.0 0.00 0.00 0.00 41 1019.8
20260508195017 70 282 1.0 2.0 0.00 0.00 0.00 39 1019.9
20260508194015 70 310 0.0 2.0 0.00 0.00 0.00 40 1020.1
20260508193016 67 175 0.0 2.0 0.00 0.00 0.00 43 1020.2
20260508192016 67 250 1.0 3.0 0.00 0.00 0.00 42 1020.2
20260508191036 67 332 1.0 4.0 0.00 0.00 0.00 43 1020.3
20260508190017 67 256 1.0 3.0 0.00 0.00 0.00 42 1020.3
20260508185017 67 256 1.0 3.0 0.00 0.00 0.00 44 1020.4
20260508184055 66 279 1.0 2.0 0.00 0.00 0.00 45 1020.5
20260508183015 65 172 0.0 1.0 0.00 0.00 0.00 44 1020.6
20260508182015 66 113 1.0 2.0 0.00 0.00 0.00 44 1020.6
20260508181016 65 323 0.0 3.0 0.00 0.00 0.00 45 1020.7
20260508180016 64 272 1.0 3.0 0.00 0.00 0.00 45 1020.8
20260508175057 64 17 0.0 1.0 0.00 0.00 0.00 46 1020.8
20260508174037 63 256 1.0 4.0 0.00 0.00 0.00 47 1020.9
20260508173015 62 242 0.0 2.0 0.00 0.00 0.00 46 1020.8
20260508172015 62 50 0.0 2.0 0.00 0.00 0.00 47 1020.9
20260508171035 61 292 0.0 2.0 0.00 0.01 0.00 47 1021.0
20260508170016 60 332 0.0 2.0 0.00 0.01 0.00 49 1021.2
20260508165016 60 21 0.0 2.0 0.00 0.01 0.00 50 1021.2
20260508164016 59 319 0.0 1.0 0.00 0.02 0.00 51 1021.2
20260508163017 58 331 0.0 2.0 0.00 0.02 0.00 52 1021.3
20260508162015 57 286 0.0 1.0 0.00 0.02 0.00 55 1021.4
20260508161015 57 139 0.0 2.0 0.00 0.02 0.00 56 1021.5
20260508160016 56 253 0.0 1.0 0.00 0.03 0.00 60 1021.5
20260508155016 55 227 0.0 3.0 0.00 0.04 0.00 61 1021.5
20260508154036 53 154 0.0 3.0 0.00 0.04 0.00 66 1021.6
20260508153016 52 257 0.0 2.0 0.00 0.06 0.00 67 1021.6
20260508152017 52 250 1.0 2.0 0.00 0.06 0.00 71 1021.7
20260508151015 51 247 0.0 2.0 0.00 0.06 0.00 73 1021.8
20260508150035 50 244 0.0 2.0 0.00 0.06 0.00 75 1021.9
20260508145015 49 80 0.0 1.0 0.00 0.06 0.00 78 1021.9
20260508144036 48 99 0.0 1.0 0.00 0.06 0.00 80 1022.1
20260508143017 47 144 1.0 3.0 0.00 0.06 0.00 81 1022.0
20260508142017 47 232 0.0 2.0 0.00 0.06 0.00 82 1022.2
20260508141017 46 222 0.0 1.0 0.00 0.06 0.00 82 1022.2
20260508140015 46 257 0.0 2.0 0.00 0.06 0.00 83 1022.3
20260508135015 45 261 0.0 1.0 0.00 0.06 0.00 85 1022.4
20260508134016 44 251 0.0 1.0 0.00 0.06 0.00 88 1022.4
20260508133016 43 277 0.0 1.0 0.00 0.06 0.00 90 1022.3
20260508132016 42 0.0 0.0 0.00 0.06 0.00 91 1022.1
20260508131017 41 0.0 0.0 0.00 0.06 0.00 91 1022.1
20260508130015 40 0.0 0.0 0.00 0.06 0.00 91 1022.1
20260508125035 39 0.0 0.0 0.00 0.06 0.00 91 1021.9
20260508124015 39 0.0 0.0 0.00 0.06 0.00 91 1021.7
20260508123016 39 0.0 0.0 0.00 0.06 0.00 90 1021.1
20260508122016 39 0.0 0.0 0.00 0.06 0.00 90 1020.9